Riverton, WY

11:53 AM MST on December 10, 2016 (GMT -0700)
Thermopolis

Weather History for KTBX - October, 2012

Change the Weather History Date:

Wednesday, October 24, 2012

  Actual Average (KRIW) Record (KRIW)
Temperature  
Mean Temperature 28 °F -  
Max Temperature 32 °F 56 °F 74 °F (2014)
Min Temperature 23 °F 23 °F 19 °F (1995)
Degree Days  
Heating Degree Days 38    
Moisture  
Dew Point 20 °F    
Average Humidity 73    
Maximum Humidity 100    
Minimum Humidity 35    
Precipitation  
Precipitation 0.00 in - - ()
Sea Level Pressure  
Sea Level Pressure 30.02 in    
Wind  
Wind Speed 11 mph ()    
Max Wind Speed 22 mph    
Max Gust Speed 24 mph    
Visibility 8.5 miles    
Events Fog , Snow    
Averages and records for this station are not official NWS values.
T = Trace of Precipitation, MM = Missing Value Source: Averaged Metar Reports

Daily Weather History Graph

Daily Weather History Graph

Search for Another Location

Airport or City:

Trip Planner

Search our weather history database for the weather conditions in past years. The results will help you decide how hot, cold, wet, or windy it might be!

Date:

Astronomy

Oct. 24, 2012 Rise Set
Actual Time 7:38 AM MDT 6:14 PM MDT
Civil Twilight 7:09 AM MDT 6:43 PM MDT
Nautical Twilight 6:36 AM MDT 7:17 PM MDT
Astronomical Twilight 6:02 AM MDT 7:50 PM MDT
Moon 3:39 PM MDT (10/24) 2:28 AM MDT (10/24)
Length of Visible Light 11h 34m
Length of Day
10h 35m
Waxing Gibbous, 76% of the Moon is Illuminated
Oct 24
Waxing Gibbous
Oct 29
Full
Nov 6
Last Quarter
Nov 13
New
Nov 20
First Quarter

Hourly Weather History & Observations

Time (MDT) Temp. Windchill Dew Point Humidity Pressure Visibility Wind Dir Wind Speed Gust Speed Precip Events Conditions
12:15 AM 32.0 °F 25.6 °F 24.8 °F 75% 29.96 in 10.0 mi SSE 6.9 mph - N/A   Overcast
12:35 AM 32.0 °F 23.6 °F 23.0 °F 69% 29.96 in 10.0 mi SSE 10.4 mph - N/A   Overcast
12:55 AM 32.0 °F 23.0 °F 21.2 °F 64% 29.96 in 10.0 mi South 11.5 mph - N/A   Overcast
1:15 AM 32.0 °F 22.5 °F 21.2 °F 64% 29.96 in 10.0 mi SSE 12.7 mph 19.6 mph N/A   Overcast
1:35 AM 32.0 °F 22.5 °F 23.0 °F 69% 29.95 in 10.0 mi SSE 12.7 mph - N/A   Overcast
2:15 AM 32.0 °F 23.6 °F 14.0 °F 48% 29.95 in 10.0 mi South 10.4 mph 20.7 mph N/A   Overcast
2:35 AM 32.0 °F 21.2 °F 8.6 °F 38% 29.96 in 10.0 mi South 16.1 mph - N/A   Overcast
2:55 AM 32.0 °F 21.2 °F 6.8 °F 35% 29.96 in 10.0 mi SSW 16.1 mph 23.0 mph N/A   Overcast
3:15 AM 32.0 °F 23.0 °F 8.6 °F 38% 29.96 in 10.0 mi SW 11.5 mph - N/A   Overcast
3:35 AM 32.0 °F 23.0 °F 8.6 °F 38% 29.96 in 10.0 mi SW 11.5 mph 16.1 mph N/A   Overcast
3:55 AM 32.0 °F 24.2 °F 8.6 °F 38% 29.98 in 10.0 mi SW 9.2 mph - N/A   Overcast
4:15 AM 30.2 °F 24.3 °F 15.8 °F 55% 29.98 in 10.0 mi SW 5.8 mph - N/A   Overcast
5:15 AM 30.2 °F 26.7 °F 17.6 °F 60% 29.98 in 10.0 mi East 3.5 mph - N/A   Overcast
5:35 AM 28.4 °F 23.3 °F 19.4 °F 69% 29.98 in 10.0 mi SE 4.6 mph - N/A   Overcast
6:15 AM 28.4 °F 22.2 °F 21.2 °F 74% 30.00 in 10.0 mi ESE 5.8 mph - N/A   Overcast
6:35 AM 28.4 °F 22.2 °F 21.2 °F 74% 29.99 in 10.0 mi ESE 5.8 mph - N/A   Overcast
6:55 AM 28.4 °F 23.3 °F 21.2 °F 74% 29.98 in 10.0 mi SE 4.6 mph - N/A   Overcast
7:15 AM 28.4 °F 24.6 °F 17.6 °F 64% 29.99 in 10.0 mi East 3.5 mph - N/A   Overcast
7:35 AM 28.4 °F 24.6 °F 19.4 °F 69% 30.00 in 10.0 mi NNW 3.5 mph - N/A   Overcast
7:55 AM 26.6 °F 20.0 °F 19.4 °F 74% 29.99 in 10.0 mi North 5.8 mph - N/A   Overcast
8:15 AM 26.6 °F 20.0 °F 21.2 °F 80% 30.00 in 10.0 mi NNW 5.8 mph - N/A   Overcast
8:35 AM 24.8 °F 16.1 °F 21.2 °F 86% 30.00 in 10.0 mi NNW 8.1 mph - N/A   Overcast
8:55 AM 24.8 °F 14.0 °F 23.0 °F 93% 30.00 in 10.0 mi NNW 11.5 mph - N/A   Overcast
9:15 AM 24.8 °F 14.6 °F 23.0 °F 93% 30.01 in 10.0 mi NNW 10.4 mph - N/A   Overcast
9:35 AM 24.8 °F 13.4 °F 23.0 °F 93% 30.01 in 10.0 mi NNW 12.7 mph - N/A   Overcast
10:15 AM 26.6 °F 14.7 °F 23.0 °F 86% 30.01 in 10.0 mi North 15.0 mph - N/A   Mostly Cloudy
10:35 AM 26.6 °F 14.7 °F 23.0 °F 86% 30.01 in 10.0 mi NNW 15.0 mph - N/A   Mostly Cloudy
10:55 AM 26.6 °F 15.2 °F 23.0 °F 86% 30.01 in 10.0 mi NNW 13.8 mph - N/A   Overcast
11:35 AM 28.4 °F 16.2 °F 23.0 °F 80% 30.01 in 10.0 mi NNW 17.3 mph - N/A   Overcast
11:55 AM 28.4 °F 16.6 °F 23.0 °F 80% 30.01 in 10.0 mi NNW 16.1 mph - N/A   Overcast
12:15 PM 28.4 °F 16.2 °F 23.0 °F 80% 30.00 in 10.0 mi NNW 17.3 mph 20.7 mph N/A   Overcast
12:35 PM 28.4 °F 16.2 °F 23.0 °F 80% 30.00 in 10.0 mi NNW 17.3 mph - N/A   Overcast
12:55 PM 28.4 °F 15.4 °F 21.2 °F 74% 30.00 in 10.0 mi NW 19.6 mph - N/A   Overcast
1:15 PM 28.4 °F 15.4 °F 23.0 °F 80% 30.00 in 10.0 mi NW 19.6 mph - N/A   Overcast
1:35 PM 28.4 °F 15.4 °F 21.2 °F 74% 29.99 in 10.0 mi NW 19.6 mph 23.0 mph N/A   Overcast
2:15 PM 28.4 °F 16.6 °F 21.2 °F 74% 29.99 in 10.0 mi NNW 16.1 mph - N/A   Overcast
2:35 PM 28.4 °F 15.1 °F 21.2 °F 74% 29.99 in 10.0 mi NNW 20.7 mph - N/A   Overcast
2:55 PM 28.4 °F 15.4 °F 19.4 °F 69% 29.99 in 10.0 mi NW 19.6 mph 24.2 mph N/A   Overcast
3:15 PM 30.2 °F 17.1 °F 19.4 °F 64% 29.99 in 10.0 mi NNW 21.9 mph - N/A   Overcast
3:35 PM 30.2 °F 17.8 °F 19.4 °F 64% 30.00 in 10.0 mi NNW 19.6 mph 24.2 mph N/A   Overcast
3:55 PM 30.2 °F 19.3 °F 19.4 °F 64% 30.01 in 10.0 mi NNW 15.0 mph - N/A   Overcast
4:15 PM 30.2 °F 18.5 °F 19.4 °F 64% 30.02 in 10.0 mi NNW 17.3 mph 21.9 mph N/A   Overcast
4:35 PM 30.2 °F 18.5 °F 19.4 °F 64% 30.02 in 10.0 mi NNW 17.3 mph - N/A   Overcast
4:55 PM 30.2 °F 18.9 °F 17.6 °F 60% 30.02 in 10.0 mi NNW 16.1 mph - N/A   Overcast
5:15 PM 30.2 °F 18.1 °F 17.6 °F 60% 30.03 in 10.0 mi NNW 18.4 mph - N/A   Overcast
5:35 PM 30.2 °F 18.9 °F 19.4 °F 64% 30.03 in 10.0 mi North 16.1 mph - N/A   Mostly Cloudy
5:55 PM 28.4 °F 16.6 °F 19.4 °F 69% 30.04 in 10.0 mi North 16.1 mph - N/A   Overcast
6:15 PM 28.4 °F 18.0 °F 19.4 °F 69% 30.04 in 10.0 mi North 12.7 mph - N/A   Mostly Cloudy
6:35 PM 26.6 °F 16.2 °F 19.4 °F 74% 30.04 in 10.0 mi North 11.5 mph - N/A   Mostly Cloudy
6:55 PM 26.6 °F 17.5 °F 19.4 °F 74% 30.05 in 10.0 mi North 9.2 mph - N/A   Scattered Clouds
7:15 PM 26.6 °F 17.5 °F 19.4 °F 74% 30.07 in 10.0 mi North 9.2 mph - N/A   Mostly Cloudy
7:35 PM 28.4 °F 23.3 °F 19.4 °F 69% 30.09 in 10.0 mi NE 4.6 mph - N/A   Overcast
8:15 PM 28.4 °F 19.7 °F 19.4 °F 69% 30.10 in 10.0 mi East 9.2 mph - N/A   Overcast
8:35 PM 26.6 °F 15.7 °F 26.6 °F 100% 30.10 in 1.8 mi SE 12.7 mph - N/A   Overcast
9:15 PM 26.6 °F 16.8 °F 24.8 °F 93% 30.10 in 0.5 mi ESE 10.4 mph - N/A Snow Light Snow
9:35 PM 26.6 °F 16.8 °F 24.8 °F 93% 30.11 in 0.2 mi SE 10.4 mph - N/A Fog Light Freezing Fog
9:55 PM 26.6 °F 15.2 °F 24.8 °F 93% 30.12 in 0.2 mi SE 13.8 mph - N/A Snow Light Snow
10:15 PM 26.6 °F 15.7 °F 24.8 °F 93% 30.12 in 0.2 mi SE 12.7 mph - N/A Fog Light Freezing Fog
10:35 PM 24.8 °F 14.0 °F 24.8 °F 100% 30.12 in 0.2 mi SE 11.5 mph - N/A Fog Light Freezing Fog
10:55 PM 24.8 °F 14.6 °F 23.0 °F 93% 30.12 in 0.2 mi SE 10.4 mph - N/A Fog Light Freezing Fog
11:15 PM 24.8 °F 14.6 °F 23.0 °F 93% 30.12 in 0.2 mi SE 10.4 mph - N/A Fog Light Freezing Fog
11:35 PM 23.0 °F 13.9 °F 23.0 °F 100% 30.12 in 0.2 mi SE 8.1 mph - N/A Fog Light Freezing Fog
11:55 PM 24.8 °F 16.1 °F 23.0 °F 93% 30.12 in 0.2 mi SE 8.1 mph - N/A Snow Light Snow